When you browse on this site, cookies collect data to enhance your experience and personalize the content and advertising you see.
Visit our Privacy Policy to learn more. By continuing to use the site, you agree to this use of cookies and data.
  • In Hungary
  • List of Countries
  • For 7 days
  • Water Temperature
  • Weather Map
  • News
  • Weather Widgets
  • user-avatar
    Login

    Hourly Weather Zbytowa

    Today, 8 April, Wednesday

    Time Temperature Precipitation Wind Pressure Humidity
    00:00 +10°C° 0 mm 2 mps 761 mmHg 76%
    01:00 +9°C° 0 mm 2 mps 762 mmHg 80%
    02:00 +9°C° 0 mm 2 mps 761 mmHg 83%
    03:00 +8°C° 0 mm 2 mps 761 mmHg 87%
    04:00 +9°C° 0 mm 1 mps 761 mmHg 90%
    05:00 +9°C° 0 mm 1 mps 761 mmHg 87%
    06:00 +10°C° 0 mm 1 mps 761 mmHg 84%
    07:00 +11°C° 0 mm 1 mps 761 mmHg 81%
    08:00 +13°C° 0 mm 1 mps 760 mmHg 74%
    09:00 +15°C° 0 mm 1 mps 760 mmHg 67%
    10:00 +18°C° 0 mm 1 mps 760 mmHg 59%
    11:00 +19°C° 0 mm 1 mps 759 mmHg 53%
    12:00 +19°C° 0 mm 2 mps 759 mmHg 48%
    13:00 +20°C° 0 mm 2 mps 758 mmHg 42%
    14:00 +20°C° 0 mm 2 mps 758 mmHg 40%
    15:00 +20°C° 0 mm 2 mps 757 mmHg 38%
    16:00 +20°C° 0 mm 2 mps 756 mmHg 36%
    17:00 +18°C° 0 mm 2 mps 756 mmHg 40%
    18:00 +16°C° 0 mm 2 mps 756 mmHg 43%
    19:00 +14°C° 0 mm 2 mps 756 mmHg 46%
    20:00 +13°C° 0 mm 2 mps 756 mmHg 48%
    21:00 +12°C° 0 mm 2 mps 756 mmHg 49%
    22:00 +10°C° 0 mm 2 mps 756 mmHg 51%
    23:00 +10°C° 0 mm 2 mps 756 mmHg 52%

    Tomorrow, 9 April, Thursday

    Time Temperature Precipitation Wind Pressure Humidity
    00:00 +9°C° 0 mm 2 mps 755 mmHg 54%
    01:00 +9°C° 0 mm 2 mps 755 mmHg 55%
    02:00 +8°C° 0 mm 2 mps 755 mmHg 57%
    03:00 +8°C° 0 mm 2 mps 754 mmHg 59%
    04:00 +7°C° 0 mm 2 mps 754 mmHg 60%
    05:00 +8°C° 0 mm 2 mps 754 mmHg 60%
    06:00 +9°C° 0 mm 2 mps 754 mmHg 60%
    07:00 +9°C° 0 mm 2 mps 753 mmHg 61%
    08:00 +11°C° 0 mm 3 mps 753 mmHg 57%
    09:00 +13°C° 0 mm 3 mps 753 mmHg 53%
    10:00 +17°C° 0 mm 4 mps 753 mmHg 49%
    11:00 +17°C° 0 mm 4 mps 753 mmHg 50%
    12:00 +17°C° 0 mm 5 mps 753 mmHg 51%
    13:00 +19°C° 0 mm 6 mps 753 mmHg 52%
    14:00 +17°C° 0 mm 6 mps 753 mmHg 58%
    15:00 +15°C° 0 mm 5 mps 753 mmHg 63%
    16:00 +14°C° 0 mm 5 mps 753 mmHg 69%
    17:00 +13°C° 0 mm 4 mps 753 mmHg 70%
    18:00 +13°C° 0 mm 4 mps 753 mmHg 72%
    19:00 +12°C° 0 mm 3 mps 754 mmHg 74%
    20:00 +11°C° 0 mm 3 mps 754 mmHg 77%
    21:00 +10°C° 0 mm 3 mps 755 mmHg 79%
    22:00 +9°C° 0 mm 3 mps 756 mmHg 82%
    23:00 +8°C° 0 mm 3 mps 756 mmHg 76%

    Day after tomorrow, 10 April, Friday

    Time Temperature Precipitation Wind Pressure Humidity
    00:00 +7°C° 0 mm 3 mps 756 mmHg 71%
    01:00 +6°C° 0 mm 2 mps 756 mmHg 65%
    02:00 +5°C° 0 mm 2 mps 756 mmHg 65%
    03:00 +4°C° 0 mm 2 mps 756 mmHg 66%
    04:00 +3°C° 0 mm 2 mps 757 mmHg 66%
    05:00 +4°C° 0 mm 2 mps 757 mmHg 65%
    06:00 +5°C° 0 mm 2 mps 757 mmHg 64%
    07:00 +5°C° 0 mm 2 mps 757 mmHg 64%
    08:00 +7°C° 0 mm 2 mps 757 mmHg 58%
    09:00 +8°C° 0 mm 2 mps 757 mmHg 53%
    10:00 +10°C° 0 mm 2 mps 757 mmHg 48%
    11:00 +12°C° 0 mm 2 mps 757 mmHg 46%
    12:00 +13°C° 0 mm 2 mps 757 mmHg 43%
    13:00 +14°C° 0 mm 2 mps 757 mmHg 41%
    14:00 +14°C° 0 mm 2 mps 756 mmHg 41%
    15:00 +14°C° 0 mm 2 mps 756 mmHg 42%
    16:00 +14°C° 0 mm 2 mps 756 mmHg 42%
    17:00 +12°C° 0 mm 2 mps 756 mmHg 47%
    18:00 +10°C° 0 mm 2 mps 756 mmHg 53%
    19:00 +8°C° 0 mm 2 mps 756 mmHg 58%
    20:00 +8°C° 0 mm 1 mps 756 mmHg 60%
    21:00 +8°C° 0 mm 1 mps 756 mmHg 61%
    22:00 +7°C° 0 mm 1 mps 756 mmHg 63%
    23:00 +6°C° 0 mm 0 mps 756 mmHg 64%

    11 April, Saturday

    Time Temperature Precipitation Wind Pressure Humidity
    00:00 +5°C° 0 mm 0 mps 756 mmHg 66%
    01:00 +5°C° 0 mm 0 mps 756 mmHg 67%
    02:00 +4°C° 0 mm 0 mps 756 mmHg 69%
    03:00 +4°C° 0 mm 0 mps 756 mmHg 70%
    04:00 +4°C° 0 mm 0 mps 757 mmHg 72%
    05:00 +5°C° 0 mm 0 mps 757 mmHg 70%
    06:00 +6°C° 0 mm 0 mps 757 mmHg 67%
    07:00 +7°C° 0 mm 0 mps 757 mmHg 65%
    08:00 +9°C° 0 mm 0 mps 757 mmHg 59%
    09:00 +10°C° 0 mm 0 mps 757 mmHg 54%
    10:00 +13°C° 0 mm 1 mps 757 mmHg 48%
    11:00 +14°C° 0 mm 1 mps 757 mmHg 45%
    12:00 +15°C° 0 mm 1 mps 756 mmHg 42%
    13:00 +16°C° 0 mm 1 mps 756 mmHg 39%
    14:00 +16°C° 0 mm 1 mps 756 mmHg 39%
    15:00 +16°C° 0 mm 1 mps 755 mmHg 38%
    16:00 +16°C° 0 mm 1 mps 755 mmHg 37%
    17:00 +14°C° 0 mm 1 mps 755 mmHg 41%
    18:00 +12°C° 0 mm 1 mps 755 mmHg 46%
    19:00 +11°C° 0 mm 1 mps 755 mmHg 50%
    20:00 +10°C° 0 mm 1 mps 755 mmHg 51%
    21:00 +10°C° 0 mm 1 mps 755 mmHg 52%
    22:00 +9°C° 0 mm 1 mps 755 mmHg 53%
    23:00 +9°C° 0 mm 1 mps 755 mmHg 55%

    12 April, Sunday

    Time Temperature Precipitation Wind Pressure Humidity
    00:00 +7°C° 0 mm 2 mps 754 mmHg 56%
    01:00 +7°C° 0 mm 2 mps 754 mmHg 57%
    02:00 +6°C° 0 mm 2 mps 754 mmHg 60%
    03:00 +6°C° 0 mm 2 mps 753 mmHg 62%
    04:00 +6°C° 0 mm 2 mps 753 mmHg 64%
    05:00 +7°C° 0 mm 2 mps 753 mmHg 64%
    06:00 +8°C° 0 mm 2 mps 752 mmHg 64%
    07:00 +9°C° 0 mm 3 mps 752 mmHg 65%
    08:00 +11°C° 0 mm 3 mps 752 mmHg 60%
    09:00 +14°C° 0 mm 3 mps 751 mmHg 55%
    10:00 +17°C° 0 mm 3 mps 751 mmHg 50%
    11:00 +18°C° 0 mm 3 mps 750 mmHg 47%
    12:00 +19°C° 0 mm 3 mps 750 mmHg 45%
    13:00 +20°C° 0 mm 4 mps 749 mmHg 42%
    14:00 +20°C° 0 mm 4 mps 749 mmHg 43%
    15:00 +20°C° 0 mm 4 mps 748 mmHg 44%
    16:00 +20°C° 0 mm 4 mps 747 mmHg 44%
    17:00 +18°C° 0 mm 4 mps 747 mmHg 50%
    18:00 +16°C° 0 mm 3 mps 747 mmHg 56%
    19:00 +14°C° 0 mm 3 mps 746 mmHg 62%
    20:00 +13°C° 0 mm 3 mps 746 mmHg 67%
    21:00 +12°C° 0 mm 3 mps 746 mmHg 71%
    22:00 +11°C° 0 mm 3 mps 746 mmHg 75%
    23:00 +11°C° 0 mm 3 mps 745 mmHg 77%

    13 April, Monday

    Time Temperature Precipitation Wind Pressure Humidity
    00:00 +11°C° 0 mm 3 mps 745 mmHg 80%
    01:00 +11°C° 0 mm 3 mps 745 mmHg 82%
    02:00 +11°C° 0 mm 3 mps 744 mmHg 81%
    03:00 +11°C° 0 mm 3 mps 744 mmHg 80%
    04:00 +11°C° 0 mm 3 mps 744 mmHg 79%
    05:00 +11°C° 0 mm 3 mps 743 mmHg 78%
    06:00 +12°C° 0 mm 3 mps 743 mmHg 77%
    07:00 +12°C° 0 mm 3 mps 743 mmHg 76%
    08:00 +14°C° 0 mm 4 mps 743 mmHg 71%
    09:00 +17°C° 0 mm 4 mps 742 mmHg 66%
    10:00 +18°C° 0 mm 4 mps 742 mmHg 62%
    11:00 +19°C° 0 mm 4 mps 742 mmHg 57%
    12:00 +20°C° 0 mm 5 mps 741 mmHg 53%
    13:00 +21°C° 0 mm 5 mps 741 mmHg 48%
    14:00 +20°C° 0.3 mm 5 mps 740 mmHg 52%
    15:00 +19°C° 0.3 mm 5 mps 740 mmHg 55%
    16:00 +19°C° 0.3 mm 6 mps 739 mmHg 58%
    17:00 +16°C° 0.7 mm 6 mps 739 mmHg 67%
    18:00 +14°C° 0.7 mm 7 mps 739 mmHg 76%
    19:00 +10°C° 0.7 mm 8 mps 739 mmHg 85%
    20:00 +9°C° 0.2 mm 7 mps 739 mmHg 84%
    21:00 +8°C° 0.2 mm 7 mps 740 mmHg 82%
    22:00 +5°C° 0.2 mm 6 mps 740 mmHg 81%
    23:00 +4°C° 0.5 mm 6 mps 741 mmHg 84%
    Show more